| time (UTC) | temp F | wind direction | speed MPH | gust MPH | rain 1hr in | rain 24hr in | rain mn in | humidity % | barometer mb |
| 20260507021553 | 85 | 241 | 3.0 | 6.0 | 0.00 | 0.00 | 0.00 | 72 | 1009.3 |
| 20260507020034 | 84 | 227 | 3.0 | 9.0 | 0.00 | 0.00 | 0.00 | 71 | 1009.0 |
| 20260507014532 | 85 | 209 | 1.0 | 8.0 | 0.00 | 0.00 | 0.00 | 75 | 1008.8 |
| 20260507013034 | 86 | 206 | 5.0 | 8.0 | 0.00 | 0.00 | 0.00 | 75 | 1008.6 |
| 20260507011530 | 86 | 245 | 2.0 | 6.0 | 0.00 | 0.00 | 0.00 | 73 | 1008.4 |
| 20260507010029 | 87 | 198 | 2.0 | 6.0 | 0.00 | 0.00 | 0.00 | 72 | 1008.3 |
| 20260507004520 | 87 | 213 | 5.0 | 10.0 | 0.00 | 0.00 | 0.00 | 71 | 1008.1 |
| 20260507003015 | 88 | 200 | 7.0 | 11.0 | 0.00 | 0.00 | 0.00 | 68 | 1007.9 |
| 20260507001515 | 88 | 219 | 7.0 | 11.0 | 0.00 | 0.00 | 0.00 | 67 | 1007.8 |
| 20260507000012 | 89 | 222 | 8.0 | 18.0 | 0.00 | 0.00 | 0.00 | 66 | 1007.8 |
| 20260506234512 | 89 | 206 | 7.0 | 21.0 | 0.00 | 0.00 | 0.00 | 64 | 1007.7 |
| 20260506233009 | 90 | 248 | 10.0 | 20.0 | 0.00 | 0.00 | 0.00 | 63 | 1007.6 |
| 20260506231509 | 90 | 231 | 12.0 | 23.0 | 0.00 | 0.00 | 0.00 | 61 | 1007.6 |
| 20260506230006 | 91 | 190 | 10.0 | 23.0 | 0.00 | 0.00 | 0.00 | 59 | 1007.5 |
| 20260506224506 | 91 | 197 | 13.0 | 25.0 | 0.00 | 0.00 | 0.00 | 58 | 1007.4 |
| 20260506223007 | 91 | 189 | 14.0 | 26.0 | 0.00 | 0.00 | 0.00 | 57 | 1007.2 |
| 20260506221505 | 92 | 163 | 17.0 | 28.0 | 0.00 | 0.00 | 0.00 | 55 | 1007.1 |
| 20260506220036 | 92 | 194 | 16.0 | 26.0 | 0.00 | 0.00 | 0.00 | 53 | 1007.0 |
| 20260506214533 | 93 | 166 | 16.0 | 27.0 | 0.00 | 0.00 | 0.00 | 52 | 1007.1 |
| 20260506213032 | 93 | 188 | 17.0 | 25.0 | 0.00 | 0.00 | 0.00 | 52 | 1007.0 |
| 20260506211530 | 94 | 183 | 14.0 | 25.0 | 0.00 | 0.00 | 0.00 | 51 | 1007.1 |
| 20260506210034 | 94 | 186 | 17.0 | 26.0 | 0.00 | 0.00 | 0.00 | 46 | 1007.1 |
| 20260506204545 | 95 | 236 | 13.0 | 22.0 | 0.00 | 0.00 | 0.00 | 43 | 1007.4 |
| 20260506203030 | 95 | 360 | 17.0 | 31.0 | 0.00 | 0.00 | 0.00 | 44 | 1007.3 |
| 20260506201529 | 95 | 166 | 16.0 | 29.0 | 0.00 | 0.00 | 0.00 | 44 | 1007.5 |
| 20260506200025 | 96 | 360 | 13.0 | 25.0 | 0.00 | 0.00 | 0.00 | 45 | 1007.7 |
| 20260506200023 | 96 | 169 | 13.0 | 25.0 | 0.00 | 0.00 | 0.00 | 45 | 1007.7 |
| 20260506194522 | 95 | 360 | 10.0 | 22.0 | 0.00 | 0.00 | 0.00 | 46 | 1007.7 |
| 20260506193020 | 95 | 234 | 12.0 | 28.0 | 0.00 | 0.00 | 0.00 | 47 | 1007.8 |
| 20260506191518 | 95 | 226 | 11.0 | 24.0 | 0.00 | 0.00 | 0.00 | 45 | 1008.0 |
| 20260506190017 | 95 | 180 | 14.0 | 26.0 | 0.00 | 0.00 | 0.00 | 48 | 1007.9 |
| 20260506184516 | 95 | 203 | 15.0 | 27.0 | 0.00 | 0.00 | 0.00 | 47 | 1008.0 |
| 20260506183016 | 96 | 176 | 14.0 | 25.0 | 0.00 | 0.00 | 0.00 | 47 | 1008.2 |
| 20260506181519 | 96 | 155 | 10.0 | 24.0 | 0.00 | 0.00 | 0.00 | 46 | 1008.4 |
| 20260506180015 | 96 | 190 | 11.0 | 25.0 | 0.00 | 0.00 | 0.00 | 46 | 1008.5 |
| 20260506174509 | 96 | 240 | 13.0 | 22.0 | 0.00 | 0.00 | 0.00 | 46 | 1008.7 |
| 20260506173007 | 95 | 182 | 11.0 | 22.0 | 0.00 | 0.00 | 0.00 | 51 | 1008.7 |
| 20260506171510 | 95 | 180 | 12.0 | 21.0 | 0.00 | 0.00 | 0.00 | 53 | 1008.8 |
| 20260506170003 | 95 | 172 | 12.0 | 20.0 | 0.00 | 0.00 | 0.00 | 54 | 1008.9 |
| 20260506164501 | 95 | 167 | 10.0 | 19.0 | 0.00 | 0.00 | 0.00 | 56 | 1009.1 |
| 20260506163101 | 94 | 144 | 9.0 | 16.0 | 0.00 | 0.00 | 0.00 | 58 | 1009.2 |
| 20260506161604 | 94 | 114 | 2.0 | 14.0 | 0.00 | 0.00 | 0.00 | 58 | 1009.3 |
| 20260506160057 | 94 | 228 | 6.0 | 13.0 | 0.00 | 0.00 | 0.00 | 50 | 1009.4 |
| 20260506154550 | 93 | 203 | 10.0 | 15.0 | 0.00 | 0.00 | 0.00 | 51 | 1009.4 |
| 20260506153046 | 91 | 188 | 7.0 | 13.0 | 0.00 | 0.00 | 0.00 | 55 | 1009.5 |
| 20260506151558 | 90 | 252 | 1.0 | 5.0 | 0.00 | 0.00 | 0.00 | 62 | 1009.6 |
| 20260506150036 | 89 | 262 | 4.0 | 9.0 | 0.00 | 0.00 | 0.00 | 65 | 1009.6 |
| 20260506144533 | 88 | 309 | 4.0 | 10.0 | 0.00 | 0.00 | 0.00 | 66 | 1009.7 |
| 20260506143042 | 87 | 306 | 0.0 | 4.0 | 0.00 | 0.00 | 0.00 | 71 | 1009.7 |
| 20260506141524 | 85 | 305 | 0.0 | 4.0 | 0.00 | 0.00 | 0.00 | 75 | 1009.8 |
| 20260506140032 | 83 | 306 | 0.0 | 1.0 | 0.00 | 0.00 | 0.00 | 79 | 1009.8 |
| 20260506134523 | 81 | 224 | 1.0 | 3.0 | 0.00 | 0.00 | 0.00 | 81 | 1009.8 |
| 20260506133024 | 80 | 224 | 1.0 | 4.0 | 0.00 | 0.00 | 0.00 | 83 | 1009.8 |
| 20260506131525 | 78 | 303 | 1.0 | 2.0 | 0.00 | 0.00 | 0.00 | 85 | 1009.6 |
| 20260506130018 | 77 | 302 | 1.0 | 7.0 | 0.00 | 0.00 | 0.00 | 86 | 1009.5 |
| 20260506124517 | 76 | 300 | 2.0 | 5.0 | 0.00 | 0.00 | 0.00 | 88 | 1009.3 |
| 20260506123017 | 76 | 296 | 0.0 | 0.0 | 0.00 | 0.00 | 0.00 | 88 | 1009.2 |
| 20260506121514 | 76 | 290 | 0.0 | 4.0 | 0.00 | 0.00 | 0.00 | 88 | 1009.2 |
| 20260506120014 | 76 | 325 | 0.0 | 0.0 | 0.00 | 0.00 | 0.00 | 87 | 1009.1 |
| 20260506114516 | 77 | 328 | 0.0 | 0.0 | 0.00 | 0.00 | 0.00 | 87 | 1009.0 |
| 20260506113013 | 77 | 328 | 0.0 | 0.0 | 0.00 | 0.00 | 0.00 | 87 | 1008.9 |
| 20260506111541 | 77 | 13 | 0.0 | 0.0 | 0.00 | 0.00 | 0.00 | 88 | 1008.7 |
| 20260506110048 | 77 | 13 | 0.0 | 0.0 | 0.00 | 0.00 | 0.00 | 88 | 1008.6 |
| 20260506104536 | 77 | 13 | 0.0 | 0.0 | 0.00 | 0.00 | 0.00 | 88 | 1008.4 |
| 20260506103035 | 78 | 159 | 0.0 | 0.0 | 0.00 | 0.00 | 0.00 | 87 | 1008.3 |
| 20260506101548 | 78 | 159 | 0.0 | 0.0 | 0.00 | 0.00 | 0.00 | 87 | 1008.2 |
| 20260506100032 | 78 | 159 | 0.0 | 0.0 | 0.00 | 0.00 | 0.00 | 87 | 1008.1 |
| 20260506094529 | 78 | 159 | 0.0 | 4.0 | 0.00 | 0.00 | 0.00 | 86 | 1008.1 |
| 20260506093027 | 79 | 346 | 0.0 | 0.0 | 0.00 | 0.00 | 0.00 | 85 | 1008.1 |
| 20260506091528 | 79 | 346 | 0.0 | 4.0 | 0.00 | 0.00 | 0.00 | 85 | 1008.1 |
| 20260506090025 | 79 | 326 | 2.0 | 3.0 | 0.00 | 0.00 | 0.00 | 85 | 1008.1 |
| 20260506084554 | 79 | 328 | 2.0 | 5.0 | 0.00 | 0.00 | 0.00 | 84 | 1008.2 |
| 20260506083053 | 79 | 327 | 0.0 | 0.0 | 0.00 | 0.00 | 0.00 | 83 | 1008.3 |
| 20260506081548 | 80 | 26 | 1.0 | 5.0 | 0.00 | 0.00 | 0.00 | 83 | 1008.6 |
| 20260506073046 | 81 | 173 | 0.0 | 2.0 | 0.00 | 0.00 | 0.00 | 83 | 1008.7 |
| 20260506071557 | 81 | 230 | 0.0 | 2.0 | 0.00 | 0.00 | 0.00 | 82 | 1008.9 |
| 20260506061537 | 82 | 292 | 2.0 | 6.0 | 0.00 | 0.00 | 0.00 | 81 | 1009.4 |
| 20260506044525 | 83 | 254 | 2.0 | 6.0 | 0.00 | 0.00 | 0.00 | 80 | 1009.6 |
| 20260506043021 | 83 | 257 | 2.0 | 6.0 | 0.00 | 0.00 | 0.00 | 80 | 1009.4 |
| 20260506041527 | 83 | 286 | 1.0 | 7.0 | 0.00 | 0.00 | 0.00 | 80 | 1009.3 |
| 20260506040046 | 84 | 265 | 0.0 | 7.0 | 0.00 | 0.00 | 0.00 | 79 | 1009.3 |
| 20260506034546 | 84 | 250 | 3.0 | 7.0 | 0.00 | 0.00 | 0.00 | 79 | 1009.2 |
| 20260506033039 | 84 | 234 | 1.0 | 5.0 | 0.00 | 0.00 | 0.00 | 79 | 1008.9 |
| 20260506031539 | 84 | 265 | 1.0 | 5.0 | 0.00 | 0.00 | 0.00 | 78 | 1008.8 |
| 20260506030036 | 84 | 230 | 2.0 | 6.0 | 0.00 | 0.00 | 0.00 | 78 | 1008.6 |
| 20260506024539 | 84 | 234 | 2.0 | 6.0 | 0.00 | 0.00 | 0.00 | 79 | 1008.3 |
| 20260506023002 | 84 | 225 | 1.0 | 6.0 | 0.00 | 0.00 | 0.00 | 79 | 1008.3 |